Weather History for Lakeville, MN

Change the Weather History Date:

Monday, December 5, 2011

  Actual Average Record
Temperature  
Mean Temperature 16 °F -  
Max Temperature 19 °F 30 °F 62 °F (2001)
Min Temperature 12 °F 13 °F -8 °F (1955)
Degree Days  
Heating Degree Days 50    
Moisture  
Dew Point 13 °F    
Average Humidity 82    
Maximum Humidity 93    
Minimum Humidity 74    
Precipitation  
Precipitation 0.00 in - - ()
Sea Level Pressure  
Sea Level Pressure 30.42 in    
Wind  
Wind Speed 7 mph (NW)    
Max Wind Speed 14 mph    
Max Gust Speed -    
Visibility 10 miles    
Events Snow    
Averages and records for this station are not official NWS values.
T = Trace of Precipitation, MM = Missing Value Source: NWS Daily Summary

Daily Weather History Graph

Daily Weather History Graph

Search for Another Location

Airport:

Trip Planner

Search our weather history database for the weather conditions in past years. The results will help you decide how hot, cold, wet, or windy it might be!

Date:

Astronomy

Dec. 05, 2011 Rise Set
Actual Time 7:33 AM CST 4:33 PM CST
Civil Twilight 7:00 AM CST 5:06 PM CST
Nautical Twilight 6:24 AM CST 5:42 PM CST
Astronomical Twilight 5:48 AM CST 6:17 PM CST
Moon 1:38 PM CST (12/5) 2:48 AM CST (12/5)
Length of Visible Light 10h 05m
Length of Day
8h 59m
Waxing Gibbous, 80% of the Moon is Illuminated
Dec 5
Waxing Gibbous
Dec 10
Full
Dec 17
Last Quarter
Dec 24
New
Jan 1
First Quarter

Hourly Weather History & Observations

Time (CST) Temp. Windchill Dew Point Humidity Pressure Visibility Wind Dir Wind Speed Gust Speed Precip Events Conditions
12:09 AM 19.4 °F 10.4 °F 15.8 °F 86% 30.34 in 10.0 mi WNW 6.9 mph - N/A   Overcast
12:30 AM 19.4 °F 10.4 °F 15.8 °F 86% 30.34 in 10.0 mi NW 6.9 mph - N/A   Overcast
12:49 AM 19.4 °F 10.4 °F 15.8 °F 86% 30.34 in 10.0 mi NW 6.9 mph - N/A   Overcast
1:10 AM 19.4 °F 12.8 °F 15.8 °F 86% 30.33 in 10.0 mi WNW 4.6 mph - N/A   Overcast
1:29 AM 19.4 °F 10.4 °F 15.8 °F 86% 30.34 in 10.0 mi NW 6.9 mph - N/A   Overcast
1:50 AM 19.4 °F 12.8 °F 15.8 °F 86% 30.34 in 10.0 mi NW 4.6 mph - N/A   Overcast
2:10 AM 19.4 °F 12.8 °F 15.8 °F 86% 30.35 in 10.0 mi WNW 4.6 mph - N/A   Overcast
2:29 AM 19.4 °F 11.5 °F 15.8 °F 86% 30.35 in 10.0 mi WNW 5.8 mph - N/A Snow Light Snow
2:50 AM 19.4 °F 12.8 °F 15.8 °F 86% 30.35 in 10.0 mi WNW 4.6 mph - N/A   Overcast
3:10 AM 19.4 °F 8.6 °F 15.8 °F 86% 30.35 in 10.0 mi WNW 9.2 mph - N/A   Overcast
3:29 AM 17.6 °F 9.3 °F 15.8 °F 93% 30.36 in 10.0 mi West 5.8 mph - N/A   Overcast
4:10 AM 17.6 °F 9.3 °F 15.8 °F 93% 30.37 in 10.0 mi West 5.8 mph - N/A   Overcast
4:29 AM 17.6 °F 10.7 °F 14.0 °F 86% 30.38 in 10.0 mi West 4.6 mph - N/A   Overcast
5:10 AM 15.8 °F 8.6 °F 12.2 °F 86% 30.38 in 10.0 mi West 4.6 mph - N/A   Scattered Clouds
5:29 AM 15.8 °F 10.2 °F 12.2 °F 86% 30.38 in 10.0 mi West 3.5 mph - N/A   Clear
5:50 AM 14.0 °F 5.1 °F 12.2 °F 93% 30.39 in 10.0 mi West 5.8 mph - N/A   Mostly Cloudy
6:10 AM 12.2 °F 0.7 °F 10.4 °F 92% 30.39 in 10.0 mi West 8.1 mph - N/A   Overcast
6:50 AM 15.8 °F 7.2 °F 12.2 °F 86% 30.39 in 10.0 mi West 5.8 mph - N/A   Overcast
7:10 AM 15.8 °F 7.2 °F 12.2 °F 86% 30.39 in 10.0 mi West 5.8 mph - N/A   Mostly Cloudy
7:29 AM 15.8 °F 6.1 °F 12.2 °F 86% 30.39 in 10.0 mi WNW 6.9 mph - N/A   Mostly Cloudy
7:50 AM 14.0 °F 6.5 °F 12.2 °F 93% 30.40 in 10.0 mi WNW 4.6 mph - N/A   Mostly Cloudy
8:10 AM 15.8 °F 7.2 °F 14.0 °F 93% 30.42 in 10.0 mi WNW 5.8 mph - N/A   Overcast
8:29 AM 17.6 °F 6.4 °F 15.8 °F 93% 30.42 in 10.0 mi NW 9.2 mph - N/A   Overcast
8:50 AM 19.4 °F 8.6 °F 14.0 °F 80% 30.43 in 10.0 mi NNW 9.2 mph - N/A   Overcast
9:10 AM 19.4 °F 7.9 °F 14.0 °F 80% 30.44 in 10.0 mi NNW 10.4 mph - N/A   Scattered Clouds
9:29 AM 19.4 °F 7.9 °F 12.2 °F 74% 30.43 in 10.0 mi NNW 10.4 mph - N/A   Clear
9:50 AM 19.4 °F 7.9 °F 12.2 °F 74% 30.44 in 10.0 mi NW 10.4 mph - N/A   Clear
10:10 AM 19.4 °F 6.0 °F 12.2 °F 74% 30.45 in 10.0 mi North 13.8 mph - N/A   Clear
10:29 AM 19.4 °F 6.6 °F 12.2 °F 74% 30.45 in 10.0 mi North 12.7 mph - N/A   Clear
10:50 AM 19.4 °F 7.9 °F 12.2 °F 74% 30.45 in 10.0 mi NNW 10.4 mph - N/A   Clear
11:10 AM 19.4 °F 7.9 °F 12.2 °F 74% 30.46 in 10.0 mi North 10.4 mph - N/A   Scattered Clouds
11:29 AM 19.4 °F 7.2 °F 14.0 °F 80% 30.45 in 10.0 mi NNW 11.5 mph - N/A   Scattered Clouds
11:50 AM 19.4 °F 8.6 °F 12.2 °F 74% 30.45 in 10.0 mi NNW 9.2 mph - N/A   Overcast
12:10 PM 19.4 °F 8.6 °F 12.2 °F 74% 30.45 in 10.0 mi North 9.2 mph - N/A   Overcast
12:29 PM 19.4 °F 7.9 °F 12.2 °F 74% 30.44 in 10.0 mi NW 10.4 mph - N/A   Overcast
12:50 PM 19.4 °F 8.6 °F 12.2 °F 74% 30.44 in 10.0 mi NNW 9.2 mph - N/A   Overcast
1:10 PM 17.6 °F 7.3 °F 12.2 °F 79% 30.44 in 10.0 mi NNW 8.1 mph - N/A Snow Light Snow
1:29 PM 19.4 °F 7.9 °F 14.0 °F 80% 30.43 in 10.0 mi NNW 10.4 mph - N/A Snow Light Snow
1:50 PM 19.4 °F 7.9 °F 14.0 °F 80% 30.43 in 10.0 mi North 10.4 mph - N/A   Overcast
2:10 PM 19.4 °F 8.6 °F 12.2 °F 74% 30.43 in 10.0 mi NNW 9.2 mph - N/A   Overcast
2:29 PM 19.4 °F 9.5 °F 14.0 °F 80% 30.43 in 10.0 mi North 8.1 mph - N/A   Overcast
2:50 PM 19.4 °F 7.9 °F 12.2 °F 74% 30.43 in 10.0 mi NNW 10.4 mph - N/A   Overcast
3:10 PM 17.6 °F 5.7 °F 12.2 °F 79% 30.43 in 10.0 mi NNW 10.4 mph - N/A Snow Light Snow
3:29 PM 19.4 °F 8.6 °F 14.0 °F 80% 30.44 in 10.0 mi North 9.2 mph - N/A   Overcast
3:49 PM 19.4 °F 8.6 °F 14.0 °F 80% 30.44 in 10.0 mi North 9.2 mph - N/A   Overcast
4:10 PM 17.6 °F 6.4 °F 14.0 °F 86% 30.44 in 10.0 mi NW 9.2 mph - N/A   Overcast
4:29 PM 17.6 °F 7.3 °F 12.2 °F 79% 30.45 in 10.0 mi NNW 8.1 mph - N/A   Overcast
4:49 PM 17.6 °F 7.3 °F 12.2 °F 79% 30.45 in 10.0 mi NW 8.1 mph - N/A   Overcast
5:10 PM 17.6 °F 6.4 °F 12.2 °F 79% 30.45 in 10.0 mi NW 9.2 mph - N/A Snow Light Snow
5:29 PM 17.6 °F 5.7 °F 12.2 °F 79% 30.46 in 10.0 mi NW 10.4 mph - N/A Snow Light Snow
5:50 PM 17.6 °F 7.3 °F 12.2 °F 79% 30.46 in 10.0 mi NNW 8.1 mph - N/A Snow Light Snow
6:09 PM 17.6 °F 5.7 °F 12.2 °F 79% 30.45 in 10.0 mi NNW 10.4 mph - N/A Snow Light Snow
6:30 PM 17.6 °F 7.3 °F 12.2 °F 79% 30.45 in 10.0 mi NNW 8.1 mph - N/A Snow Light Snow
6:50 PM 17.6 °F 6.4 °F 12.2 °F 79% 30.45 in 10.0 mi NW 9.2 mph - N/A Snow Light Snow
7:09 PM 17.6 °F 8.2 °F 12.2 °F 79% 30.45 in 10.0 mi NNW 6.9 mph - N/A Snow Light Snow
7:30 PM 17.6 °F 8.2 °F 12.2 °F 79% 30.45 in 10.0 mi North 6.9 mph - N/A Snow Light Snow
7:50 PM 17.6 °F 8.2 °F 14.0 °F 86% 30.46 in 10.0 mi North 6.9 mph - N/A Snow Light Snow
8:10 PM 17.6 °F 8.2 °F 14.0 °F 86% 30.46 in 7.0 mi NNE 6.9 mph - N/A Snow Light Snow
8:30 PM 17.6 °F 9.3 °F 12.2 °F 79% 30.46 in 7.0 mi NNE 5.8 mph - N/A Snow Light Snow
8:50 PM 15.8 °F 8.6 °F 12.2 °F 86% 30.46 in 3.0 mi NNE 4.6 mph - N/A Snow Light Snow
9:09 PM 15.8 °F 6.1 °F 12.2 °F 86% 30.46 in 4.0 mi North 6.9 mph - N/A Snow Light Snow
9:30 PM 15.8 °F 7.2 °F 12.2 °F 86% 30.46 in 4.0 mi North 5.8 mph - N/A Snow Light Snow
9:50 PM 15.8 °F - 12.2 °F 86% 30.46 in 7.0 mi Calm Calm - N/A Snow Light Snow
10:10 PM 15.8 °F 8.6 °F 12.2 °F 86% 30.46 in 10.0 mi NNE 4.6 mph - N/A Snow Light Snow
10:30 PM 15.8 °F 7.2 °F 12.2 °F 86% 30.45 in 10.0 mi NNE 5.8 mph - N/A Snow Light Snow
10:50 PM 15.8 °F 8.6 °F 10.4 °F 79% 30.45 in 10.0 mi North 4.6 mph - N/A Snow Light Snow
11:09 PM 15.8 °F 10.2 °F 10.4 °F 79% 30.45 in 10.0 mi North 3.5 mph - N/A Snow Light Snow
11:30 PM 15.8 °F - 10.4 °F 79% 30.45 in 10.0 mi Calm Calm - N/A Snow Light Snow
11:50 PM 15.8 °F - 10.4 °F 79% 30.45 in 10.0 mi Calm Calm - N/A Snow Light Snow